Wind_Speed
3 2 2 2 3 4 5 6 7 8 9 10 11 12 14 15 16 16 17 18 18 19 20 20 21 22 23 24 25 25 25 25 25 24 24 23 22 21 20 19 18 17 15 14
2 1 0 1 3 4 5 6 7 8 9 10 11 12 13 15 16 16 17 17 18 19 19 20 21 22 22 23 24 25 26 26 26 25 25 24 23 23 22 21 20 19 17 15
2 2 1 2 3 4 5 6 6 7 8 9 10 11 12 14 15 17 17 18 18 19 19 20 21 21 22 23 24 25 26 26 26 26 25 25 25 24 24 23 22 21 19 17
4 4 3 3 3 4 5 6 6 7 8 9 10 10 11 13 14 16 17 17 18 18 19 20 20 21 22 23 24 25 26 26 26 26 26 26 26 26 25 25 24 23 22 20
6 6 5 5 5 6 6 6 7 8 9 9 10 11 11 13 14 15 16 17 17 18 18 19 20 21 21 22 23 24 25 26 26 27 27 27 27 27 27 26 25 25 23 22
8 8 8 8 8 8 8 8 9 9 10 10 11 12 12 13 14 14 15 16 17 17 18 19 19 20 21 22 22 24 25 25 26 27 27 28 28 28 28 28 27 26 25 23
10 11 11 10 10 10 10 11 11 12 12 12 12 13 13 14 15 15 16 16 17 18 18 18 19 20 21 21 22 23 24 25 26 26 27 28 28 28 29 29 28 28 26 24
13 13 13 13 13 13 14 14 15 15 15 15 15 15 16 16 16 17 17 17 18 18 19 19 19 20 20 21 22 23 23 24 25 26 26 27 28 28 29 29 29 28 27 25
16 16 15 15 16 16 16 17 18 18 18 18 18 18 18 18 18 19 19 19 19 19 19 20 20 20 21 21 22 22 23 23 24 25 25 26 26 27 28 29 29 28 27 25
18 18 18 18 18 18 19 20 20 20 20 20 20 21 21 21 21 21 21 21 21 21 21 21 21 21 21 22 22 22 23 23 24 24 24 25 25 26 26 27 28 27 26 26
21 20 20 20 21 21 22 22 23 23 22 22 23 23 23 24 24 24 24 23 23 23 23 23 23 23 23 22 22 22 23 23 23 23 23 24 24 24 24 25 26 26 25 25
22 22 22 22 23 24 24 24 24 24 24 24 25 25 25 26 26 26 26 26 26 25 25 25 25 25 24 24 23 23 23 23 23 23 23 23 23 23 23 23 23 24 23 22
24 24 24 24 25 25 26 27 27 27 27 27 27 27 27 27 28 28 28 28 28 28 28 28 28 27 27 26 25 25 24 24 24 23 23 22 22 22 22 21 21 21 21 20
27 27 27 27 28 28 29 29 30 30 30 30 30 31 31 31 31 31 31 31 31 31 31 31 30 30 30 28 27 26 26 25 25 24 23 23 22 21 21 20 20 19 19 18
31 31 32 32 32 33 33 34 34 35 35 35 35 35 35 35 35 36 36 36 35 35 35 34 34 34 34 32 30 29 28 27 26 26 25 24 23 22 21 20 19 18 17 16
35 36 37 37 38 38 38 39 39 39 40 40 40 40 40 40 40 40 40 40 40 39 39 38 38 38 37 35 34 32 31 30 29 28 27 26 24 23 22 21 19 18 16 15
40 40 41 42 43 43 43 44 44 44 44 44 44 44 44 44 44 43 43 43 43 43 42 42 41 41 41 40 38 36 34 33 32 30 29 28 27 25 24 23 21 20 18 16
43 44 45 46 47 47 48 48 48 48 48 48 47 47 46 46 46 45 45 45 45 45 45 45 44 44 44 43 42 40 38 37 35 34 32 31 30 28 27 25 24 22 21 18
46 47 48 48 49 49 49 49 49 48 48 47 47 47 46 46 46 45 45 45 45 45 46 47 47 47 47 47 46 45 43 41 39 38 36 35 33 32 30 29 27 26 24 22
48 48 48 48 49 49 49 48 47 46 46 45 46 46 45 45 45 45 45 46 46 45 45 46 47 48 48 49 49 48 47 46 44 42 41 39 38 36 34 33 31 29 28 26
48 48 48 47 46 45 44 44 44 44 44 44 43 43 43 44 45 45 45 46 47 48 48 48 48 48 49 50 51 51 50 50 49 47 46 44 43 41 39 37 35 34 32 30
45 44 43 42 41 41 41 41 41 41 41 42 42 43 44 45 46 47 48 49 49 50 50 51 51 51 51 52 52 53 53 53 53 52 51 49 48 46 44 42 40 38 37 35
39 39 39 39 39 39 40 40 40 41 42 43 44 45 46 48 49 49 51 52 53 54 54 53 53 53 54 54 55 55 56 57 57 56 55 54 53 51 50 48 46 43 41 39
37 37 38 38 38 38 39 39 40 42 43 45 46 47 48 50 51 53 54 55 55 56 56 57 56 56 56 56 56 57 58 59 59 60 60 59 58 57 55 53 51 49 46 44
35 36 36 36 37 38 39 41 42 44 45 47 48 50 51 52 54 55 56 57 58 59 59 59 59 59 59 59 59 59 60 60 61 62 62 63 62 61 60 58 56 54 51 49
36 36 37 38 38 39 41 42 44 45 47 49 50 52 53 55 56 57 59 60 60 61 62 62 62 62 62 62 61 61 61 62 63 64 65 65 65 65 64 63 61 59 56 54
37 38 38 39 40 41 42 44 45 47 48 49 51 53 54 56 57 59 60 61 62 63 63 64 64 64 63 63 62 61 61 61 62 64 66 67 67 67 67 66 64 63 61 59
Wind_Direction
145 128 94 52 23 14 10 8 9 10 12 13 12 12 13 14 14 14 14 16 18 19 19 20 20 20 21 20 19 19 19 18 16 14 13 12 9 6 3 360 356 350 343 333
182 169 81 9 1 0 358 357 1 6 10 11 13 14 14 15 14 13 13 13 14 15 16 17 18 19 19 18 18 17 17 17 16 16 15 13 11 8 6 2 359 354 349 341
224 238 282 331 343 345 349 351 354 358 3 3 5 8 10 11 12 12 11 11 12 13 14 15 15 16 16 16 15 15 15 15 15 15 14 13 12 10 8 5 2 359 354 347
246 257 273 294 309 321 331 337 342 348 351 353 356 359 2 3 4 6 7 8 9 11 11 12 12 13 13 13 13 14 14 14 14 14 13 12 11 10 9 7 4 1 357 353
257 264 270 280 289 299 308 317 325 332 338 342 344 346 349 351 353 356 358 0 2 4 5 6 7 8 9 10 10 11 12 12 12 13 12 12 12 11 10 8 7 4 2 360
265 268 271 275 281 288 295 301 309 315 320 325 329 332 336 338 340 343 347 351 353 355 357 359 360 1 2 4 5 7 8 9 10 11 11 11 12 11 11 10 9 7 6 5
268 271 273 276 279 283 286 294 298 302 306 311 315 320 323 326 328 331 334 337 341 344 347 349 351 353 355 357 359 1 3 5 6 8 9 10 10 11 12 11 11 11 10 10
270 273 276 279 279 281 284 288 292 296 299 303 306 310 313 316 319 322 325 327 330 333 336 339 342 344 346 349 352 354 357 359 2 3 5 7 9 10 12 12 12 12 14 15
272 274 277 278 280 282 284 286 288 291 294 297 300 303 306 309 312 314 317 320 323 325 327 330 332 334 337 341 344 347 350 353 356 358 0 3 5 8 10 11 12 14 16 18
272 274 275 277 278 279 280 282 284 287 289 292 295 297 300 302 305 308 310 313 315 318 320 322 324 326 329 332 336 339 342 345 348 351 354 357 360 2 5 8 11 14 17 19
271 273 274 275 276 277 279 280 282 284 287 290 293 295 297 300 302 303 305 307 309 311 313 315 317 319 321 324 327 330 333 337 340 343 347 349 353 356 359 3 7 10 14 17
271 272 273 274 276 278 279 281 284 286 288 291 293 295 297 298 300 301 303 304 305 307 308 309 311 312 314 317 319 321 324 327 331 335 338 342 345 349 353 356 1 4 9 13
270 271 272 274 276 278 280 283 285 287 289 291 292 294 296 297 298 299 300 302 303 304 305 305 306 307 308 310 312 313 315 318 321 325 328 332 336 339 344 348 353 357 2 8
271 272 273 274 276 277 279 282 284 285 286 288 289 291 293 294 296 297 298 299 300 301 301 302 303 303 303 305 306 307 309 310 312 315 318 321 325 329 333 337 342 348 353 359
270 272 273 274 276 277 279 281 282 284 285 286 288 289 291 292 293 294 295 296 297 298 298 298 299 299 299 301 302 302 303 304 305 307 308 311 314 317 320 324 329 335 340 346
268 270 272 274 276 277 278 280 281 283 285 286 288 289 290 291 292 292 293 293 294 294 294 295 295 295 296 297 298 298 298 298 299 300 300 302 304 306 308 311 315 319 323 328
268 270 272 274 276 277 279 281 282 284 285 286 287 288 289 290 291 291 291 291 291 291 291 291 291 291 292 292 292 293 293 294 294 294 294 294 295 296 297 299 301 303 306 308
268 269 271 273 275 277 279 281 283 284 285 286 287 287 288 289 289 289 289 289 289 289 289 289 288 288 288 288 288 288 287 288 288 289 288 288 288 288 288 289 289 290 292 293
267 269 271 273 275 277 279 281 283 284 286 287 288 289 289 289 289 289 289 288 288 287 287 287 287 286 285 285 284 284 283 283 282 282 282 282 282 282 281 281 281 280 280 281
266 268 270 272 274 276 278 280 282 284 285 287 288 289 289 290 290 290 290 290 289 288 286 285 284 284 284 283 282 281 280 279 278 277 277 277 277 276 276 275 274 273 273 272
265 267 269 271 273 275 277 279 281 283 284 286 287 289 290 291 291 291 291 291 291 291 289 288 286 284 282 281 280 279 277 276 274 273 271 271 271 271 270 270 269 267 267 266
264 266 267 269 271 273 275 277 279 281 283 285 287 288 290 291 292 293 293 293 292 291 290 289 288 286 284 282 279 277 275 273 272 270 268 267 266 265 265 265 264 263 262 261
261 263 265 268 270 272 274 276 279 281 284 286 288 290 291 293 293 294 294 294 294 293 292 291 289 287 285 282 280 277 275 272 270 268 266 264 262 261 261 261 260 259 258 257
260 263 265 267 270 272 274 277 280 283 285 288 290 291 293 294 295 295 295 295 295 294 294 293 291 289 286 283 280 277 274 271 269 267 264 262 260 258 257 257 256 256 255 255
261 263 265 267 270 273 277 280 283 286 288 290 292 293 295 296 296 297 297 297 297 296 296 294 293 291 289 285 282 278 274 270 267 265 262 260 258 256 254 253 253 253 252 252
261 264 266 269 273 276 279 282 285 288 290 293 295 296 297 299 299 300 300 300 299 299 298 297 295 294 291 288 285 281 276 271 267 263 260 257 256 255 253 251 250 250 249 249
263 266 269 272 276 279 282 284 287 290 293 295 297 298 300 301 301 302 302 302 301 301 300 299 298 296 294 291 288 284 280 274 268 262 258 255 253 252 251 249 248 248 247 246
Height
5873 5873 5873 5872 5872 5871 5870 5869 5868 5867 5865 5863 5860 5857 5855 5851 5848 5845 5841 5837 5833 5829 5825 5821 5817 5813 5808 5803 5798 5793 5788 5783 5778 5773 5767 5762 5758 5753 5748 5744 5739 5735 5732 5729
5873 5873 5873 5873 5872 5871 5870 5869 5868 5867 5865 5863 5861 5858 5855 5852 5849 5846 5842 5839 5835 5831 5827 5823 5819 5814 5810 5805 5800 5795 5790 5785 5780 5774 5769 5764 5758 5753 5748 5743 5739 5734 5730 5726
5873 5873 5873 5873 5872 5871 5870 5869 5868 5867 5866 5863 5861 5858 5856 5853 5850 5847 5843 5840 5836 5832 5828 5824 5820 5816 5812 5807 5802 5797 5792 5787 5781 5776 5770 5765 5759 5754 5749 5743 5738 5733 5729 5724
5872 5873 5873 5875 5872 5871 5870 5869 5868 5866 5865 5863 5861 5858 5856 5853 5851 5847 5844 5841 5837 5833 5829 5825 5821 5817 5813 5808 5804 5799 5794 5788 5783 5777 5771 5766 5760 5754 5749 5744 5738 5733 5727 5722
5871 5871 5872 5872 5871 5870 5869 5868 5867 5866 5864 5862 5860 5858 5856 5853 5851 5848 5845 5841 5838 5834 5830 5826 5822 5818 5814 5810 5805 5800 5795 5790 5785 5779 5773 5767 5761 5756 5750 5744 5738 5732 5727 5721
5869 5869 5870 5871 5869 5868 5869 5867 5866 5864 5863 5861 5859 5857 5856 5853 5850 5847 5844 5841 5838 5834 5831 5827 5823 5819 5815 5811 5806 5802 5797 5792 5786 5781 5775 5769 5763 5757 5751 5745 5739 5733 5727 5721
5867 5867 5867 5868 5867 5867 5867 5866 5864 5862 5860 5859 5857 5856 5854 5851 5848 5846 5843 5840 5837 5834 5830 5827 5823 5819 5815 5811 5807 5802 5798 5793 5787 5782 5777 5771 5765 5759 5753 5747 5741 5734 5728 5722
5864 5864 5866 5864 5864 5864 5863 5861 5860 5859 5857 5856 5854 5852 5851 5848 5846 5844 5841 5838 5835 5832 5829 5826 5823 5819 5815 5811 5807 5803 5798 5793 5789 5783 5778 5773 5767 5761 5755 5749 5743 5737 5730 5724
5862 5863 5861 5860 5860 5860 5859 5857 5856 5855 5854 5852 5851 5849 5847 5845 5843 5841 5838 5836 5833 5830 5827 5824 5821 5818 5814 5811 5807 5803 5798 5794 5789 5784 5779 5774 5769 5764 5758 5752 5746 5739 5733 5728
5856 5856 5856 5856 5855 5855 5854 5853 5852 5851 5849 5848 5846 5845 5843 5841 5839 5837 5835 5832 5830 5827 5824 5822 5818 5815 5812 5809 5805 5802 5798 5794 5790 5785 5780 5776 5771 5765 5760 5755 5749 5743 5737 5732
5851 5851 5851 5850 5850 5849 5848 5848 5847 5846 5844 5843 5842 5840 5838 5836 5834 5832 5830 5828 5826 5823 5821 5818 5815 5812 5809 5806 5803 5800 5796 5793 5789 5785 5781 5776 5772 5767 5762 5757 5752 5747 5741 5736
5845 5845 5845 5845 5844 5843 5843 5842 5841 5840 5839 5837 5836 5835 5833 5831 5829 5827 5825 5823 5821 5818 5816 5814 5811 5808 5806 5803 5800 5797 5794 5791 5787 5784 5780 5776 5772 5768 5763 5759 5754 5749 5744 5739
5838 5838 5838 5838 5838 5837 5836 5835 5834 5834 5833 5831 5830 5828 5827 5825 5823 5821 5819 5817 5815 5813 5811 5808 5806 5803 5800 5798 5796 5793 5790 5787 5784 5781 5778 5775 5771 5767 5764 5760 5755 5751 5747 5742
5831 5831 5831 5831 5831 5830 5829 5828 5827 5826 5825 5824 5823 5822 5820 5819 5817 5815 5813 5811 5809 5807 5804 5802 5799 5797 5794 5793 5791 5788 5786 5783 5781 5778 5775 5773 5770 5766 5763 5759 5756 5752 5749 5745
5822 5822 5823 5822 5822 5822 5821 5820 5819 5818 5817 5816 5815 5814 5812 5811 5809 5807 5805 5803 5801 5799 5796 5794 5792 5790 5787 5786 5784 5782 5780 5778 5776 5773 5771 5769 5767 5764 5761 5758 5755 5752 5749 5746
5813 5813 5813 5812 5812 5812 5811 5811 5810 5808 5807 5806 5805 5803 5802 5801 5799 5797 5795 5793 5792 5790 5787 5785 5784 5781 5779 5778 5776 5775 5773 5771 5769 5768 5766 5764 5762 5760 5758 5756 5753 5751 5748 5746
5802 5802 5802 5801 5801 5800 5800 5799 5798 5797 5796 5795 5793 5792 5791 5789 5788 5786 5784 5782 5780 5778 5776 5775 5773 5771 5769 5768 5767 5766 5765 5763 5762 5761 5759 5757 5756 5754 5753 5752 5750 5748 5746 5744
5790 5790 5790 5789 5789 5788 5787 5787 5786 5785 5783 5782 5781 5780 5778 5777 5775 5773 5771 5770 5768 5765 5763 5762 5760 5759 5757 5756 5755 5755 5754 5754 5753 5752 5751 5749 5748 5747 5746 5745 5744 5743 5742 5741
5777 5777 5777 5777 5776 5775 5774 5773 5772 5771 5770 5769 5767 5766 5764 5763 5761 5760 5758 5756 5755 5753 5751 5749 5747 5745 5744 5743 5742 5742 5742 5742 5742 5741 5741 5740 5739 5738 5738 5737 5737 5736 5736 5735
5764 5764 5764 5764 5763 5763 5762 5761 5760 5758 5757 5756 5754 5752 5750 5749 5747 5746 5744 5742 5740 5739 5737 5735 5734 5731 5730 5728 5727 5727 5727 5727 5728 5728 5728 5728 5728 5728 5728 5727 5727 5727 5727 5727
5750 5751 5751 5751 5751 5750 5749 5748 5747 5746 5745 5743 5742 5740 5738 5736 5734 5732 5730 5728 5725 5723 5721 5719 5718 5716 5715 5713 5712 5711 5711 5711 5711 5712 5713 5714 5714 5715 5715 5716 5716 5716 5717 5718
5737 5738 5738 5738 5738 5738 5737 5737 5735 5734 5732 5731 5729 5727 5725 5723 5721 5718 5715 5713 5711 5708 5706 5703 5701 5699 5697 5696 5694 5693 5693 5693 5693 5694 5695 5697 5698 5699 5701 5702 5703 5704 5705 5706
5725 5725 5726 5726 5726 5726 5725 5725 5723 5722 5720 5719 5717 5714 5712 5709 5707 5704 5701 5697 5694 5691 5688 5686 5683 5681 5679 5677 5675 5674 5673 5673 5673 5674 5675 5677 5679 5681 5683 5685 5687 5689 5691 5692
5713 5714 5714 5714 5714 5714 5713 5712 5711 5709 5707 5705 5703 5701 5698 5694 5691 5687 5684 5681 5677 5674 5670 5667 5664 5662 5659 5657 5655 5653 5652 5651 5651 5652 5653 5655 5658 5661 5664 5667 5670 5672 5675 5677
5701 5702 5703 5703 5703 5702 5701 5700 5698 5696 5693 5691 5688 5685 5682 5678 5675 5671 5667 5663 5659 5655 5651 5647 5644 5640 5637 5634 5632 5630 5629 5628 5628 5628 5630 5631 5634 5638 5642 5645 5649 5653 5657 5660
5690 5691 5691 5691 5691 5690 5688 5686 5684 5682 5679 5675 5672 5668 5664 5660 5656 5652 5648 5643 5639 5634 5630 5626 5622 5617 5614 5610 5607 5605 5603 5602 5602 5602 5604 5606 5609 5613 5617 5622 5627 5632 5636 5641
5677 5678 5678 5678 5677 5676 5674 5672 5670 5667 5663 5660 5656 5651 5647 5643 5638 5633 5628 5623 5618 5613 5608 5604 5599 5594 5589 5585 5581 5578 5576 5575 5574 5574 5575 5578 5582 5586 5591 5597 5603 5608 5614 5619